Location: Benque
(43.2594°N, 0.9178°E)
Time: 15:20:12
(UTC+00:00)

Meteor 1-27 - Pass Details

Date: 24 January 2020
Orbit: 836 x 894 km, 81.3° (Epoch: 26 February)

Event Time Altitude Azimuth Distance (km) Brightness Sun altitude
Rises 19:10:08 0° 347° (NNW) 3,399 7.5 -24.1°
Reaches altitude 10° 19:12:34 10° 346° (NNW) 2,459 6.7 -24.5°
Maximum altitude 19:18:06 73° 263° (W) 877 4.3 -25.5°
Drops below altitude 10° 19:23:37 10° 179° (S) 2,452 6.6 -26.6°
Sets 19:26:02 0° 178° (S) 3,388 7.3 -27.0°
